Change the Weather History Date:

Sunday, January 13, 2013

  Actual Average Record
Temperature  
Mean Temperature 49 °F -  
Max Temperature 69 °F - 73 °F (1950)
Min Temperature 29 °F - 0 °F (1977)
Degree Days  
Heating Degree Days 16    
Month to date heating degree days 288  
Since 1 July heating degree days 1728  
Moisture  
Dew Point 45 °F    
Average Humidity 87    
Maximum Humidity 100    
Minimum Humidity 73    
Precipitation  
Precipitation 2.07 in - 2.07 in (2013)
Month to date precipitation 3.38  
Sea Level Pressure  
Sea Level Pressure 29.95 in    
Wind  
Wind Speed 11 mph (NW)    
Max Wind Speed 23 mph    
Max Gust Speed 29 mph    
Visibility 6 miles    
Events Rain , Thunderstorm    
T = Trace of Precipitation, MM = Missing Value Source: NWS Daily Summary

Daily Weather History Graph

Daily Weather History Graph

Search for Another Location

Airport or City:

Trip Planner

Search our weather history database for the weather conditions in past years. The results will help you decide how hot, cold, wet, or windy it might be!

Date:

Astronomy

Jan. 13, 2013 Rise Set
Actual Time 7:01 AM CST 4:55 PM CST
Civil Twilight 6:33 AM CST 5:24 PM CST
Nautical Twilight 6:01 AM CST 5:55 PM CST
Astronomical Twilight 5:30 AM CST 6:26 PM CST
Moon 8:04 AM CST (1/13) 7:28 PM CST (1/13)
Length of Visible Light 10h 50m
Length of Day
9h 54m
Waxing Crescent, 5% of the Moon is Illuminated
Jan 13
Waxing Crescent
Jan 18
First Quarter
Jan 26
Full
Feb 3
Last Quarter
Feb 10
New

Hourly Weather History & Observations

Time (CST) Temp. Windchill Dew Point Humidity Pressure Visibility Wind Dir Wind Speed Gust Speed Precip Events Conditions
12:47 AM 68.0 °F - 60.8 °F 78% 29.81 in 10.0 mi South 15.0 mph - 0.00 in   Overcast
12:52 AM 68.0 °F - 61.0 °F 78% 29.80 in 10.0 mi South 16.1 mph 21.9 mph 0.00 in   Overcast
1:52 AM 68.0 °F - 61.0 °F 78% 29.78 in 10.0 mi SSE 12.7 mph 23.0 mph N/A   Overcast
2:52 AM 68.0 °F - 60.1 °F 76% 29.80 in 10.0 mi South 11.5 mph 20.7 mph N/A   Mostly Cloudy
3:07 AM 68.0 °F - 60.8 °F 78% 29.81 in 10.0 mi South 10.4 mph - N/A   Overcast
3:23 AM 68.0 °F - 60.8 °F 78% 29.80 in 10.0 mi South 13.8 mph 20.7 mph N/A Thunderstorm Mostly Cloudy
3:44 AM 64.4 °F - 60.8 °F 88% 29.85 in 1.8 mi WNW 18.4 mph 28.8 mph 0.11 in Rain , Thunderstorm Rain
3:52 AM 62.1 °F - 59.0 °F 90% 29.84 in 1.0 mi West 9.2 mph 26.5 mph 0.33 in Rain , Thunderstorm Heavy Thunderstorms and Rain
4:04 AM 62.6 °F - 60.8 °F 94% 29.85 in 2.0 mi SW 5.8 mph - 0.09 in Rain , Thunderstorm Heavy Thunderstorms and Rain
4:11 AM 62.6 °F - 60.8 °F 94% 29.84 in 3.0 mi SW 3.5 mph - 0.11 in Rain Rain
4:52 AM 61.0 °F - 60.1 °F 97% 29.86 in 3.0 mi North - - 0.22 in Rain Rain
5:25 AM 60.8 °F - 60.8 °F 100% 29.88 in 6.0 mi South 3.5 mph - 0.08 in Rain Rain
5:50 AM 60.8 °F - 60.8 °F 100% 29.89 in 4.0 mi Calm Calm - 0.17 in Rain Rain
5:52 AM 61.0 °F - 60.1 °F 97% 29.88 in 4.0 mi Calm Calm - 0.17 in Rain Rain
6:23 AM 60.8 °F - 60.8 °F 100% 29.90 in 8.0 mi SSE 6.9 mph - 0.04 in Rain Light Rain
6:31 AM 60.8 °F - 60.8 °F 100% 29.90 in 3.0 mi SSE 6.9 mph - 0.05 in Rain Light Rain
6:52 AM 62.1 °F - 60.1 °F 93% 29.88 in 7.0 mi SSE 8.1 mph - 0.09 in Rain Light Rain
7:12 AM 62.6 °F - 60.8 °F 94% 29.90 in 10.0 mi SSE 8.1 mph - 0.01 in Rain Light Rain
7:52 AM 61.0 °F - 60.1 °F 97% 29.87 in 7.0 mi SE 8.1 mph - 0.06 in Rain Rain
8:40 AM 60.8 °F - 60.8 °F 100% 29.90 in 4.0 mi South 9.2 mph - 0.09 in Rain Light Rain
8:52 AM 61.0 °F - 60.1 °F 97% 29.89 in 5.0 mi SSE 9.2 mph - 0.10 in Rain Light Rain
9:50 AM 50.0 °F - 48.2 °F 94% 29.90 in 2.5 mi NNW 12.7 mph - 0.14 in Rain Heavy Rain
9:52 AM 48.9 °F - 46.9 °F 93% 29.89 in 2.0 mi NW 11.5 mph - 0.15 in Rain , Thunderstorm Heavy Rain
9:59 AM 48.2 °F - 46.4 °F 93% 29.91 in 1.8 mi NW 11.5 mph - 0.03 in Rain , Thunderstorm Rain
10:21 AM 46.4 °F 40.1 °F 44.6 °F 93% 29.92 in 1.8 mi NW 15.0 mph - 0.15 in Rain , Thunderstorm Heavy Thunderstorms and Rain
10:29 AM 46.4 °F 41.1 °F 44.6 °F 93% 29.92 in 2.0 mi NW 11.5 mph - 0.17 in Rain , Thunderstorm Rain
10:41 AM 44.6 °F - 42.8 °F 93% 29.91 in 2.5 mi North - - 0.22 in Rain Heavy Rain
10:46 AM 44.6 °F 38.8 °F 42.8 °F 93% 29.92 in 3.0 mi NW 11.5 mph - 0.23 in Rain Rain
11:07 AM 44.6 °F 39.7 °F 42.8 °F 93% 29.90 in 4.0 mi North 9.2 mph - 0.04 in Rain Rain
11:13 AM 42.8 °F 36.6 °F 42.8 °F 100% 29.90 in 4.0 mi NNW 11.5 mph - 0.07 in Rain Rain
11:20 AM 42.8 °F 36.2 °F 42.8 °F 100% 29.90 in 2.5 mi NNW 12.7 mph - 0.10 in Rain Rain
11:29 AM 42.8 °F 36.2 °F 41.0 °F 93% 29.88 in 3.0 mi NNW 12.7 mph - 0.13 in Rain Rain
11:46 AM 42.8 °F 37.5 °F 41.0 °F 93% 29.88 in 7.0 mi NNW 9.2 mph - 0.15 in Rain Light Rain
11:52 AM 43.0 °F 37.7 °F 41.0 °F 93% 29.89 in 9.0 mi NNW 9.2 mph - 0.15 in Rain Light Rain
12:11 PM 42.8 °F 38.0 °F 41.0 °F 93% 29.89 in 2.5 mi NW 8.1 mph - 0.05 in Rain Rain
12:30 PM 42.8 °F 37.0 °F 41.0 °F 93% 29.90 in 3.0 mi NW 10.4 mph - 0.09 in Rain Rain
12:40 PM 42.8 °F - 41.0 °F 93% 29.89 in 3.0 mi North - - 0.12 in Rain Heavy Rain
12:45 PM 42.8 °F 36.6 °F 39.2 °F 87% 29.90 in 1.8 mi NW 11.5 mph - 0.14 in Rain , Thunderstorm Heavy Thunderstorms and Rain
12:52 PM 41.0 °F 32.2 °F 39.9 °F 96% 29.91 in 1.5 mi NW 18.4 mph 25.3 mph 0.17 in Rain , Thunderstorm Heavy Thunderstorms and Rain
12:57 PM 41.0 °F 33.1 °F 39.2 °F 93% 29.90 in 2.0 mi NW 15.0 mph 25.3 mph 0.01 in Rain Rain
1:05 PM 41.0 °F 34.3 °F 39.2 °F 93% 29.88 in 5.0 mi NNW 11.5 mph 21.9 mph 0.01 in Rain Light Rain
1:16 PM 41.0 °F 33.9 °F 39.2 °F 93% 29.90 in 6.0 mi NNW 12.7 mph - 0.03 in Rain Light Rain
1:52 PM 39.9 °F 30.8 °F 37.9 °F 93% 29.91 in 6.0 mi NW 18.4 mph - 0.10 in Rain Rain
2:45 PM 39.2 °F 30.2 °F 37.4 °F 93% 29.97 in 3.0 mi NNW 17.3 mph - 0.17 in Rain Heavy Rain
3:01 PM 37.4 °F 27.8 °F 35.6 °F 93% 29.97 in 5.0 mi NNW 17.3 mph 24.2 mph 0.01 in Rain Rain
3:12 PM 37.4 °F 26.9 °F 33.8 °F 87% 29.98 in 10.0 mi NNW 20.7 mph 27.6 mph 0.02 in Rain Light Rain
3:28 PM 35.6 °F 24.2 °F 33.8 °F 93% 30.00 in 10.0 mi NW 21.9 mph 26.5 mph 0.02 in Rain Light Rain
3:37 PM 35.6 °F 25.9 °F 33.8 °F 93% 30.02 in 4.0 mi NNW 16.1 mph 24.2 mph 0.03 in Rain Rain
3:49 PM 35.6 °F 28.0 °F 33.8 °F 93% 30.03 in 7.0 mi NNW 10.4 mph 19.6 mph 0.04 in Rain Light Rain
3:52 PM 36.0 °F 27.1 °F 33.1 °F 89% 30.04 in 8.0 mi NW 13.8 mph - 0.04 in Rain Light Rain
4:06 PM 35.6 °F 25.9 °F 33.8 °F 93% 30.04 in 7.0 mi NNW 16.1 mph 21.9 mph 0.01 in Rain Light Rain
4:44 PM 35.6 °F 26.2 °F 32.0 °F 87% 30.09 in 2.0 mi NNW 15.0 mph 27.6 mph 0.04 in Rain Rain
4:52 PM 34.0 °F 23.4 °F 32.0 °F 92% 30.09 in 4.0 mi NNW 17.3 mph 26.5 mph 0.05 in Rain Light Rain
5:52 PM 34.0 °F 25.0 °F 32.0 °F 92% 30.15 in 10.0 mi NW 12.7 mph - 0.00 in   Overcast
6:52 PM 34.0 °F 26.6 °F 32.0 °F 92% 30.16 in 10.0 mi NNW 9.2 mph - N/A   Overcast
7:52 PM 34.0 °F 25.5 °F 30.9 °F 89% 30.18 in 10.0 mi NNW 11.5 mph - N/A   Overcast
8:27 PM 33.8 °F 23.9 °F 28.4 °F 81% 30.19 in 10.0 mi NNW 15.0 mph - N/A   Overcast
8:52 PM 32.0 °F 24.2 °F 28.0 °F 85% 30.21 in 10.0 mi NNW 9.2 mph - N/A   Scattered Clouds
9:52 PM 30.9 °F 21.7 °F 26.1 °F 82% 30.25 in 10.0 mi North 11.5 mph - N/A   Scattered Clouds
10:13 PM 30.2 °F 21.3 °F 26.6 °F 86% 30.25 in 10.0 mi North 10.4 mph - N/A   Mostly Cloudy
10:52 PM 30.0 °F 20.0 °F 25.0 °F 82% 30.26 in 10.0 mi North 12.7 mph - N/A   Clear
11:25 PM 28.4 °F 20.4 °F 24.8 °F 86% 30.26 in 10.0 mi North 8.1 mph - N/A   Mostly Cloudy
11:52 PM 28.9 °F 19.2 °F 24.1 °F 82% 30.28 in 10.0 mi North 11.5 mph - N/A   Overcast